星链-31666 (STARLINK-31666 )

导读

STARLINK-31666是美国太空探索技术公司Starlink星链星座的组网卫星,于北京时间2024年4月23日发射入轨,属于星链低轨互联网星座的批量发射组网卫星之一,承载着为全球提供高速宽带互联网覆盖的任务,延续了星链星座持续扩容、补网提升全球服务覆盖能力的部署节奏。

Basic Information
目录编号:
59572
目录名称:
STARLINK-31666
国际标识:
2024-076J
轨道中心:
EARTH
卫星名称:
星链-31666
卫星全名:
星链-31666 (STARLINK-31666 )
卫星状态:
在轨 (已飞行786 天)
发射日期:
2024-04-23 UTC
国别 :
美国 (US)
星等 :
--
Orbit Information
数据来源 国际轨道数据 AOE轨道数据
星历时间 2026-06-17T17:48:05+0800
19小时前
查看轨道信息
2026-06-16T01:00:00+0800
2天前
查看轨道信息
半长轴 6861.198km 6861.202km
偏心率 0.0001041 0.0003407
轨道倾角 43.002° 43.001°
近地点辐角 265.180° 201.586°
升交点赤经 158.872° 168.476°
平近点角 94.893° 158.412°
近地点 482.346km 480.727km
远地点 483.776km 485.403km
周期 94.267分钟 94.267分钟
每日圈数 15.275763 15.275749
Detailed Information
固有亮度:
5
最大亮度:
1.5
卫星平台:
Starlink v2.0 mini
覆盖范围:
全球
运营商:
太空探索技术公司
运营商所在国:
美国
制造商(研发单位):
太空探索技术公司
制造商所在国:
美国
使用方式:
暂无
Satellite Introduction
星链(Starlink)计划是由太空探索技术公司(SpaceX)提出的一个巨型低轨卫星互联网星座项目,计划在2019年至2024年间在太空搭建由约1.2万颗卫星组成的“星链”网络,其中1584颗将部署在地球上空550千米处的近地轨道,并从2020年开始工作。该卫星仍在工作。
2D Orbit Map
3D Orbit Map
Orbit Altitude Analysis Chart
Orbit Inclination Analysis Chart
Orbit Comprehensive Analysis Chart
View Comprehensive Chart